Theta_e
311 312 312 311 312 312 312 311 311 311 311 311 310 310 310 311 311 311 311 312 313 313 313 313 313 313 314 313 313 313 313 306 304 304 304 307 317 322 323 324 327 326 326 312 309 310 307 302 302 306 307 305 305 304 309 308 306 301 294 291 289 291 294 298 297 298 301 299 301 304 304 304 301 306 310 312 322 329 332 332 336 338 338 340 342 344 345 345
311 311 311 311 311 311 312 312 311 311 311 311 311 311 311 311 310 311 311 312 312 313 313 313 312 313 313 313 313 313 310 305 303 304 304 315 322 323 327 328 330 327 323 308 305 307 308 300 301 304 304 301 308 303 308 303 308 298 294 292 290 294 298 302 303 301 301 300 304 305 305 304 304 307 310 309 318 322 326 330 334 334 337 340 342 343 343 343
311 311 311 311 311 311 312 312 311 311 311 311 310 311 312 312 311 311 311 311 311 312 313 313 312 312 313 312 312 313 308 303 304 302 308 322 322 323 327 330 328 330 313 305 305 307 311 304 303 304 303 302 303 301 305 302 304 300 295 290 293 299 300 302 304 304 305 305 303 304 305 305 310 309 313 308 310 322 324 327 330 331 333 336 339 342 342 342
310 310 310 310 310 311 311 311 311 311 310 310 311 310 311 312 312 311 312 312 311 312 312 313 312 311 312 312 313 311 305 302 298 304 310 324 324 323 325 328 328 329 311 305 305 306 309 311 306 305 304 302 302 305 301 302 299 299 296 292 296 300 299 302 304 304 306 306 304 304 304 304 310 311 311 310 309 317 324 331 331 330 333 336 339 341 342 341
310 310 310 310 310 310 310 310 310 310 310 310 310 310 310 311 312 312 311 311 311 311 312 312 312 312 311 312 313 309 302 294 295 307 319 332 330 326 325 325 329 319 310 306 304 303 303 303 304 305 304 298 302 301 301 302 304 302 297 299 300 301 299 303 304 304 305 305 305 304 301 302 307 311 310 310 312 312 318 332 334 334 335 336 338 340 341 341
311 310 310 310 310 310 310 310 310 310 310 310 310 310 310 311 311 312 311 311 311 311 311 311 311 311 311 311 309 306 300 285 305 307 324 329 331 328 325 326 329 310 306 302 301 302 302 304 304 301 299 299 299 297 300 303 305 295 297 299 301 302 300 304 304 304 303 305 303 303 304 305 305 308 310 320 319 321 330 333 335 336 337 339 340 340 339 339
311 310 310 309 309 310 310 310 310 310 310 310 310 310 310 311 311 311 312 311 311 311 311 310 311 311 311 311 306 303 298 301 308 309 324 328 326 325 327 327 323 311 305 300 300 300 302 302 303 300 300 300 300 300 303 302 303 299 295 299 301 302 301 304 303 302 303 302 303 305 306 303 303 301 311 319 322 325 328 332 334 336 339 341 339 339 338 339
310 310 310 309 310 309 310 310 310 310 310 310 311 311 310 311 311 311 311 311 311 311 311 310 310 310 311 305 301 298 298 298 307 310 324 329 327 328 325 313 306 304 303 301 300 299 301 300 300 302 297 297 301 301 303 301 302 298 297 301 302 302 302 303 302 303 303 303 303 304 302 302 303 304 316 318 322 325 327 328 329 332 337 338 338 337 337 337
310 310 309 310 310 310 310 310 309 310 310 310 310 310 311 311 311 311 311 311 311 310 310 311 310 310 311 304 299 294 295 306 309 311 322 320 313 316 311 308 307 303 302 302 302 301 301 299 301 303 296 299 304 301 302 299 294 301 299 301 302 302 303 302 302 303 302 304 304 302 301 304 304 306 310 319 323 325 326 326 328 333 334 334 334 335 336 337
309 309 309 309 309 310 309 309 309 310 310 310 310 310 310 310 310 310 310 310 310 310 310 310 311 310 305 300 298 291 302 309 310 311 317 314 313 313 310 309 307 303 300 301 302 301 300 300 302 305 304 302 304 301 302 299 296 303 302 301 301 302 302 302 302 303 303 303 302 301 301 302 305 304 300 320 324 326 325 325 329 332 332 332 334 336 337 337
309 309 309 309 309 309 309 309 309 310 310 310 310 310 310 310 310 310 310 310 310 311 310 310 310 309 301 301 294 291 308 307 308 309 311 314 312 312 309 308 306 303 301 301 301 303 303 303 304 305 303 299 302 300 301 300 303 302 302 302 301 302 302 302 301 302 301 302 303 302 300 302 303 302 300 318 323 324 322 324 328 329 329 332 335 336 337 337
308 309 309 309 308 309 309 309 310 310 310 310 310 310 310 309 309 309 309 310 310 310 310 309 310 306 302 298 294 295 309 309 311 309 310 309 308 314 314 310 306 305 302 300 301 303 304 304 304 301 295 303 296 301 300 303 302 301 301 296 298 300 299 300 299 301 302 301 303 303 300 299 299 299 304 319 322 322 321 321 325 327 330 331 333 334 335 335
308 308 308 308 309 309 309 309 310 310 309 310 310 310 309 309 309 309 309 309 309 309 309 309 308 305 299 291 296 304 307 307 308 308 307 308 307 308 311 311 309 308 305 302 301 303 304 304 303 299 301 300 299 294 303 303 301 301 299 296 296 296 295 299 301 301 300 302 303 302 288 293 296 301 303 316 319 320 319 318 322 325 326 326 329 332 332 334
308 308 308 308 308 308 309 309 309 309 309 309 309 309 309 309 309 309 309 308 309 309 309 309 307 303 297 293 301 306 308 309 309 307 306 309 307 307 310 310 310 310 311 306 305 304 304 304 303 301 303 299 297 305 301 300 302 293 297 297 290 290 289 298 300 299 298 301 302 302 290 291 296 301 303 311 317 317 316 318 322 324 324 326 329 329 328 331
308 308 308 308 308 308 308 309 309 309 309 309 309 308 308 308 308 308 309 309 308 307 308 308 305 299 294 296 305 307 311 310 305 303 304 303 303 304 304 307 307 308 310 310 308 307 306 304 302 299 296 302 301 298 295 295 296 295 290 287 291 289 290 298 301 299 296 300 302 300 292 292 296 300 302 310 314 318 319 321 322 322 323 325 327 327 329 332
308 307 308 308 308 308 308 308 308 308 309 308 308 308 308 308 308 308 309 309 309 308 307 300 300 298 293 290 299 314 308 303 301 306 306 304 303 301 304 304 307 307 309 309 311 309 307 305 299 298 298 299 296 292 290 290 290 293 289 291 288 290 291 294 298 300 300 299 301 300 291 295 295 302 304 310 311 321 320 320 321 322 324 325 326 329 330 331
307 308 307 307 307 308 308 308 308 308 308 308 308 307 307 308 308 308 308 308 307 307 304 297 300 301 287 300 308 299 298 301 308 306 305 305 304 304 304 302 303 307 310 311 309 308 305 301 301 299 299 294 293 293 287 285 284 286 290 286 291 290 291 290 295 299 300 299 296 300 296 295 296 298 306 308 315 321 319 320 321 322 323 325 326 327 327 327
307 307 307 307 307 307 308 308 308 308 308 308 307 307 305 307 308 307 306 305 305 304 302 304 300 295 292 300 293 295 302 302 303 306 306 305 304 303 303 300 301 305 307 305 307 302 303 296 298 290 292 293 293 291 286 283 286 284 287 287 288 291 292 292 291 296 299 299 296 297 297 297 297 301 306 307 317 320 319 320 320 321 322 324 325 325 324 324
307 307 307 307 307 307 307 308 308 308 308 308 307 308 309 310 308 304 300 301 297 293 289 291 292 283 284 294 299 301 302 304 305 305 303 303 303 304 304 304 301 300 299 298 298 299 299 296 296 289 288 289 290 291 289 291 293 292 292 289 290 288 289 292 295 299 299 296 295 295 295 296 299 302 304 307 309 318 319 320 320 320 322 323 324 323 322 323
307 307 307 307 306 307 306 307 307 307 308 305 302 301 299 294 297 295 298 298 295 294 294 294 296 296 297 298 296 302 307 307 300 303 305 305 302 300 300 300 298 298 298 293 295 297 298 290 288 288 289 291 293 294 294 295 295 295 294 293 292 292 293 296 297 299 301 297 295 295 296 296 300 301 304 306 308 317 317 318 319 320 321 322 321 322 322 322
307 307 307 306 306 306 306 306 306 307 307 304 301 296 289 290 290 290 294 295 298 298 296 296 297 296 295 299 299 299 296 299 302 301 304 307 302 299 296 296 293 290 294 297 295 299 297 289 289 292 293 293 294 295 295 295 295 294 293 292 291 293 290 295 296 299 301 297 294 295 296 295 298 300 304 305 308 315 315 316 318 319 320 320 321 321 322 324
307 307 306 306 306 306 305 306 306 306 307 303 300 294 295 295 298 300 297 289 296 299 298 298 299 296 300 300 301 301 300 295 297 300 305 304 299 294 294 293 291 288 294 296 295 292 290 288 292 295 296 296 296 295 296 294 294 294 292 290 290 291 295 297 297 299 300 297 293 296 294 295 298 301 303 302 304 314 317 317 317 318 319 320 321 322 325 326
307 306 306 306 306 305 305 306 306 306 303 299 296 296 296 301 304 304 300 294 291 298 297 297 295 296 297 302 302 304 295 292 292 298 300 302 297 295 294 291 290 291 293 294 290 289 286 290 295 298 296 295 295 295 295 294 294 291 290 289 288 292 291 288 294 298 299 297 293 296 294 293 300 302 302 304 315 317 320 320 320 320 319 320 321 323 324 325
306 306 306 306 306 305 305 305 306 303 299 299 297 297 301 303 303 301 296 288 288 293 295 296 298 298 297 296 303 300 295 295 295 295 304 300 295 297 294 292 290 290 290 293 293 290 289 294 298 297 296 295 294 294 293 292 289 292 292 291 291 292 294 293 292 297 298 298 298 296 296 296 298 299 301 308 318 318 318 318 318 319 321 322 323 324 325 325
306 306 306 306 305 305 305 305 299 298 301 299 298 301 303 303 303 302 293 289 289 289 299 297 299 298 301 308 306 297 297 297 297 300 302 300 296 294 292 295 292 288 291 294 294 292 293 297 298 296 296 295 294 292 292 292 288 290 293 294 294 295 294 295 295 295 292 289 295 297 288 291 297 299 300 305 313 315 317 316 316 317 318 319 320 322 325 326
306 306 305 305 305 304 306 297 296 299 298 296 300 303 305 304 304 303 294 284 279 288 296 288 299 292 304 298 301 299 299 292 299 301 302 301 303 296 294 291 293 287 291 293 292 292 293 298 297 295 295 294 294 292 293 293 289 288 290 296 296 296 295 295 294 294 287 285 292 301 291 284 295 297 300 305 311 313 316 316 316 317 317 317 319 321 323 323
307 306 305 304 304 305 296 292 299 299 294 297 304 305 305 303 305 304 288 281 277 291 287 295 293 294 301 298 299 299 283 288 300 301 301 304 298 301 291 289 292 294 296 298 291 289 296 296 296 296 295 293 292 290 293 294 290 288 296 297 297 296 295 295 295 294 290 295 296 300 297 290 289 295 302 305 308 309 313 315 316 316 316 317 319 321 321 321
306 305 305 304 304 304 296 298 297 294 296 301 304 303 304 305 304 302 287 273 274 296 287 289 294 302 299 299 300 293 293 298 291 296 302 302 302 295 293 290 290 291 295 294 284 293 295 293 295 293 293 292 290 292 294 295 292 292 297 298 296 297 296 296 295 293 293 292 288 296 300 291 290 295 302 305 304 307 310 312 314 316 317 317 318 318 318 319
305 305 304 304 304 304 303 299 297 294 299 302 303 303 305 306 301 291 281 272 289 290 303 290 304 298 296 299 295 295 294 296 290 296 301 301 302 297 289 291 293 294 296 295 288 292 296 296 296 296 293 290 293 295 296 296 292 296 298 299 298 298 297 297 293 293 292 288 284 293 298 288 288 294 298 302 303 304 309 310 312 314 315 315 316 316 317 318
305 305 304 304 303 300 298 300 297 300 302 302 302 303 305 302 293 281 276 270 295 283 293 294 293 290 294 291 291 294 291 293 295 297 299 296 298 299 297 298 293 294 293 296 294 294 297 301 301 297 294 295 295 296 297 296 297 299 298 296 296 296 294 295 294 292 289 282 284 294 297 293 284 293 297 298 300 309 310 311 312 313 314 315 315 315 315 316
305 305 303 305 296 298 298 294 298 303 303 303 304 302 301 294 283 275 271 281 291 293 294 291 290 295 291 288 286 292 292 292 293 294 292 296 294 296 295 291 295 290 291 292 292 295 296 297 296 298 300 299 298 295 298 299 298 297 294 292 292 291 293 291 292 292 283 280 287 293 294 296 284 288 298 303 309 311 311 309 310 311 312 313 314 314 315 316
304 304 304 301 301 302 294 293 300 302 302 302 302 297 292 278 283 274 274 293 279 289 290 288 293 292 290 292 289 289 288 290 292 292 290 290 289 288 289 284 287 280 283 286 287 293 292 293 296 298 303 298 296 293 294 297 296 295 293 291 285 281 283 281 285 282 282 282 288 293 294 291 287 294 296 308 310 311 312 312 310 310 310 311 313 314 315 315
304 304 304 303 303 298 299 300 302 301 301 300 298 293 284 278 272 279 280 286 281 292 290 295 292 292 291 289 287 290 291 286 291 291 293 292 289 289 292 290 291 287 281 288 287 288 288 295 295 296 297 300 297 290 289 290 292 293 291 287 283 279 279 276 279 282 283 290 292 292 293 287 294 300 307 307 310 312 312 311 311 311 310 311 312 313 314 314
303 303 300 301 301 300 301 303 302 301 299 300 293 288 282 275 275 287 283 285 286 296 294 293 293 295 292 286 288 290 285 290 289 289 292 289 289 286 289 292 292 289 288 288 285 286 280 284 291 294 290 299 296 294 293 291 291 293 295 291 285 283 283 275 278 277 279 280 289 294 288 287 290 296 308 310 310 311 311 311 311 311 311 311 312 312 313 313
303 301 300 300 300 301 301 302 302 302 300 297 289 283 275 275 280 280 283 286 290 293 291 296 292 291 290 290 291 291 289 284 290 289 289 288 285 287 287 288 292 292 291 283 289 286 287 287 293 298 296 298 295 297 297 295 292 294 295 295 288 284 287 279 282 282 284 282 284 288 288 298 296 306 308 309 309 309 310 309 310 309 310 310 310 310 311 311
301 298 300 297 297 299 301 302 302 302 297 292 284 279 276 280 277 284 284 294 292 289 291 293 292 287 287 287 291 289 293 287 288 288 287 288 290 288 291 291 290 292 289 284 289 283 288 285 294 297 298 296 296 298 297 298 284 290 292 287 290 294 291 284 285 289 282 284 283 291 295 298 305 305 306 307 306 306 308 308 308 308 309 308 308 309 310 311
296 298 294 296 297 300 301 301 302 300 296 289 282 277 282 285 288 287 291 291 291 293 290 283 285 285 284 283 287 289 289 290 288 287 283 289 287 291 290 291 294 293 293 292 289 294 284 286 294 294 293 296 299 298 298 298 298 292 288 288 296 296 295 288 281 283 281 278 280 293 290 293 295 288 305 304 303 305 305 306 307 307 307 307 307 309 309 310
295 295 296 296 298 301 302 302 300 297 293 286 280 282 287 283 290 289 293 293 293 292 288 285 286 290 285 286 285 288 289 285 285 287 284 288 283 294 291 291 294 294 295 296 290 292 293 284 290 295 295 296 298 297 296 299 300 292 291 297 289 282 284 290 284 279 279 278 283 290 295 295 295 293 300 300 301 302 304 305 305 305 305 306 306 308 309 310
295 294 289 295 300 302 302 302 299 294 288 281 280 279 285 285 290 290 292 294 293 292 286 288 285 290 290 286 288 290 290 282 286 285 283 286 281 291 291 293 292 295 295 296 293 295 295 284 287 295 294 296 296 294 284 291 296 297 296 294 296 292 288 282 283 285 283 278 283 287 292 285 298 297 302 301 303 303 303 304 304 305 305 306 306 307 307 308
291 289 287 300 302 302 304 301 295 291 285 279 281 281 287 286 289 291 292 292 291 291 289 288 291 287 290 290 291 288 291 288 286 285 286 287 286 293 291 295 292 293 295 297 295 298 288 292 283 290 296 296 288 292 289 290 287 289 289 288 291 293 294 291 292 287 281 279 284 285 285 289 297 304 304 303 304 304 304 303 304 304 305 306 306 307 307 307
294 289 290 302 305 303 303 297 289 285 283 285 286 285 286 285 289 290 293 295 294 298 292 290 291 287 290 289 289 292 290 290 290 285 287 288 288 282 292 294 294 293 296 295 295 295 288 288 283 288 289 288 289 296 295 294 293 290 288 286 287 288 285 284 281 292 290 284 281 284 282 292 301 309 306 304 305 305 306 305 304 305 305 306 306 307 307 306
290 283 289 303 305 304 295 286 286 289 285 283 282 286 285 293 289 290 292 295 295 294 298 292 294 292 291 291 290 291 290 288 291 289 289 287 291 290 293 296 295 296 294 290 292 299 293 294 289 285 288 289 293 296 298 297 296 294 292 289 291 289 287 283 280 284 289 288 293 290 287 287 304 307 308 306 306 306 306 305 304 305 305 306 306 306 307 306
288 286 300 303 306 301 292 285 287 286 284 287 291 290 291 290 289 292 292 294 292 295 293 291 293 291 293 292 292 291 292 288 290 289 291 291 294 293 295 295 297 296 296 293 297 296 305 289 285 289 292 294 296 296 297 298 296 293 293 293 292 288 289 286 284 286 284 285 283 284 285 291 303 307 307 307 306 306 306 305 304 304 305 305 304 304 305 305
289 289 293 303 305 302 290 281 281 283 285 288 289 288 292 290 290 290 290 292 292 293 291 292 293 294 291 295 293 290 295 282 292 292 290 294 291 298 297 296 297 294 295 294 292 299 288 290 287 281 283 287 289 291 291 295 295 291 290 292 292 292 293 293 293 293 284 288 288 287 284 289 301 306 305 305 304 304 304 305 305 303 303 304 304 304 304 305
290 294 294 296 303 299 286 288 286 283 285 286 286 285 287 289 291 292 292 291 294 293 292 291 293 295 294 295 292 293 294 291 289 295 294 294 293 299 298 296 297 294 299 301 305 300 290 289 285 281 279 278 278 280 281 284 288 290 295 293 293 291 291 289 283 286 283 289 293 288 288 296 301 302 302 303 303 302 303 304 304 304 303 303 303 303 304 305
287 281 288 291 297 294 293 294 291 288 285 286 283 288 290 288 291 294 294 293 294 294 292 292 294 294 293 293 291 291 292 295 292 292 293 293 294 296 297 298 297 296 303 310 305 299 291 294 290 285 284 282 285 290 295 293 290 286 290 293 292 292 292 292 288 284 282 288 289 294 295 294 296 298 299 300 301 300 301 302 301 302 302 303 303 303 304 304
291 283 285 284 291 291 289 292 290 289 285 290 284 290 287 288 291 292 297 290 294 292 295 292 291 290 291 292 290 290 294 293 295 293 294 294 298 296 298 298 298 300 312 307 304 297 294 287 291 292 290 291 292 292 293 293 290 291 291 290 291 292 292 291 285 284 292 291 287 296 297 294 295 298 299 299 300 301 301 301 301 301 301 302 302 303 305 305
283 289 289 292 286 283 284 286 290 289 289 289 287 291 289 288 289 285 295 294 294 295 290 293 292 291 291 291 292 286 290 291 293 289 298 296 297 299 297 297 296 306 307 301 302 297 292 284 292 293 293 295 293 293 293 292 291 293 292 291 290 291 291 290 290 294 293 288 288 296 298 295 297 299 300 300 300 300 300 300 301 302 302 302 303 303 303 303
292 290 289 295 287 291 289 291 292 290 289 289 287 290 288 288 288 291 292 293 293 293 293 282 291 293 292 295 292 290 292 286 284 295 295 294 296 295 293 295 298 304 299 297 297 297 292 287 293 293 293 294 296 295 296 292 292 292 292 293 293 292 291 296 299 299 296 295 298 298 298 297 299 299 300 300 301 301 300 302 302 301 301 302 302 302 302 302
286 286 285 292 292 291 292 292 291 291 288 291 286 289 289 289 288 293 294 291 286 291 295 290 292 293 295 295 293 290 292 293 293 286 295 295 293 294 294 295 293 297 298 295 296 297 292 287 297 294 290 291 296 296 298 297 295 290 298 300 301 301 300 300 299 299 300 298 298 297 294 292 297 301 300 301 301 301 301 300 300 300 301 301 301 301 300 299
294 296 295 288 286 291 292 293 291 290 287 289 287 289 290 291 290 295 294 297 293 291 294 292 294 295 295 295 294 293 297 296 297 298 300 299 291 298 294 294 298 294 296 295 297 298 296 287 297 292 284 286 294 294 295 296 295 293 293 295 297 298 295 296 295 300 298 295 295 294 290 289 295 299 300 300 300 299 298 299 299 300 301 301 300 299 298 297
299 301 300 293 286 292 290 293 292 290 284 291 291 291 291 293 295 295 287 296 297 297 296 296 296 294 294 294 295 299 303 301 300 301 303 304 304 302 302 301 299 296 293 296 297 293 293 290 285 285 283 284 293 294 292 293 291 287 287 292 295 297 298 298 298 300 300 299 293 290 291 295 296 298 297 298 299 299 299 299 299 300 301 300 299 298 297 297
Wind_Speed
12 12 12 12 12 12 12 11 12 13 14 15 15 15 15 15 14 14 14 14 15 15 15 15 16 17 18 18 19 19 18 11 14 11 10 17 9 18 22 20 9 14 9 2 5 3 4 5 6 6 6 4 4 6 7 7 5 3 4 4 6 6 9 8 7 3 1 4 4 6 2 1 2 4 3 4 15 17 16 16 15 19 16 19 18 17 16 17
13 12 12 13 13 13 12 13 13 14 14 15 15 15 15 14 13 13 13 13 14 15 15 15 15 15 17 18 19 19 15 12 14 14 19 14 10 18 15 12 10 13 8 4 7 7 6 7 7 7 6 4 5 5 4 3 5 4 3 4 8 6 12 6 8 5 3 3 3 2 3 3 2 7 3 2 16 17 15 14 17 18 17 18 17 16 15 15
13 13 13 13 13 13 13 13 14 15 15 15 15 15 15 15 13 13 13 14 14 14 15 16 16 16 16 18 19 17 14 13 11 13 18 19 23 24 11 11 13 12 10 4 6 8 9 8 9 8 7 6 5 7 8 4 5 5 3 6 8 8 10 12 9 5 2 2 7 6 5 3 2 6 5 3 10 21 17 13 15 17 16 16 15 14 14 13
13 13 13 13 13 14 14 14 14 15 16 15 16 15 15 15 14 13 13 14 14 14 15 15 16 16 17 18 18 13 10 11 7 8 5 7 23 23 17 13 13 12 6 6 5 7 9 9 7 11 7 8 5 9 7 5 5 3 6 5 6 7 10 14 13 10 1 4 4 6 6 3 2 2 5 8 5 15 14 18 20 19 18 18 16 14 12 12
13 13 14 14 13 14 14 15 15 15 16 16 15 16 15 15 14 13 13 13 13 14 15 15 16 17 17 18 17 10 11 5 2 1 3 4 13 19 20 15 13 10 9 2 3 8 10 11 9 8 7 5 8 5 8 6 8 2 9 10 11 10 8 9 11 10 2 4 2 4 6 5 8 2 3 2 8 1 8 10 20 19 17 20 17 15 11 10
13 13 14 14 14 15 15 15 15 15 16 16 16 15 15 15 14 13 13 13 14 14 14 15 15 17 17 18 13 8 3 4 3 1 3 7 6 14 18 14 12 8 5 4 5 3 6 8 8 7 6 5 5 8 5 9 8 8 4 6 11 10 10 10 12 9 5 2 4 2 4 5 6 2 7 17 7 5 19 17 18 18 15 14 14 14 12 9
12 13 14 14 14 15 15 15 15 16 16 16 16 15 15 14 14 13 13 13 13 14 14 15 15 16 16 15 11 7 5 10 8 2 4 10 14 14 8 6 3 1 3 4 7 5 6 9 9 8 5 7 9 8 8 9 8 8 5 5 10 9 11 11 11 6 4 6 2 2 4 3 7 4 8 15 14 18 17 17 16 16 16 16 14 12 12 11
13 13 14 14 14 15 15 15 15 15 16 16 15 15 14 14 13 13 13 13 13 13 14 15 15 15 15 11 9 3 7 8 14 6 3 2 7 10 11 6 5 2 3 8 8 10 8 8 9 6 6 6 3 9 8 9 8 7 7 7 9 6 7 11 6 0 4 4 5 7 5 3 7 1 8 14 15 17 16 16 16 16 15 14 12 11 10 11
13 13 13 14 14 15 15 15 16 15 16 16 15 14 14 13 13 11 13 12 13 13 14 14 14 14 12 8 6 7 10 14 12 3 2 4 5 6 7 5 6 8 7 9 9 9 6 6 9 7 4 7 7 10 9 7 5 7 5 8 8 10 10 6 4 2 4 3 3 7 4 7 8 5 7 15 15 17 17 16 14 14 15 13 10 10 12 14
13 13 14 14 14 15 16 15 16 16 15 16 15 15 14 13 12 12 12 13 13 14 14 13 13 12 9 6 7 9 6 14 11 11 10 7 8 8 8 7 9 7 8 9 8 10 9 6 9 5 9 8 5 8 8 7 4 8 14 9 9 9 9 5 10 6 5 3 4 8 3 4 9 2 3 11 17 17 17 15 13 14 14 12 10 12 11 13
13 13 14 15 15 15 16 16 16 16 16 15 15 14 14 13 12 12 12 13 13 13 13 13 12 10 9 7 7 12 6 10 8 4 13 7 9 9 10 8 12 9 10 9 10 10 10 11 10 6 5 4 3 7 9 5 6 9 7 10 12 9 11 9 5 4 4 3 2 7 5 5 9 3 7 10 16 18 19 17 15 13 11 12 13 12 10 10
13 14 14 15 15 16 16 16 16 16 15 15 15 15 14 13 13 12 12 12 12 12 12 11 12 5 9 10 12 13 10 12 12 13 14 16 9 10 14 10 12 8 10 9 10 9 10 11 11 8 4 4 10 8 9 8 11 8 9 6 8 13 10 6 5 5 5 1 4 3 6 6 5 8 9 15 18 20 20 18 16 15 15 14 12 11 9 8
13 13 14 15 15 15 16 16 16 16 15 15 15 14 14 14 13 13 13 12 11 13 13 13 9 7 9 12 11 16 22 19 18 19 19 13 12 15 10 6 11 12 11 10 9 10 10 10 10 10 11 6 2 6 1 4 8 7 6 4 5 2 8 7 6 4 5 2 7 5 5 8 5 10 6 15 17 19 19 17 15 14 13 13 10 9 9 7
13 13 14 14 15 15 15 15 16 15 16 16 15 15 14 14 15 15 15 15 14 14 13 13 7 8 8 11 8 12 15 12 12 14 14 13 15 13 9 8 8 9 9 10 10 7 10 10 10 10 8 9 6 2 13 6 2 3 4 4 4 4 3 4 6 4 6 6 10 5 5 8 6 12 6 10 16 18 16 15 14 13 12 12 10 9 8 7
12 13 13 14 15 15 15 15 15 15 16 16 15 15 15 16 16 16 15 15 15 14 14 10 5 6 7 9 11 23 32 21 13 16 16 12 14 12 6 6 12 10 10 10 7 7 7 9 9 9 7 6 10 11 9 5 3 5 3 5 2 7 2 7 12 6 9 4 10 7 5 8 6 11 6 9 12 15 17 17 15 12 10 11 10 9 8 9
11 12 13 14 14 14 15 15 15 15 15 16 16 16 16 18 17 16 16 15 15 15 8 8 7 7 8 12 8 10 9 9 11 15 14 12 14 13 9 8 8 11 9 7 7 6 7 6 10 6 7 8 11 6 5 6 5 4 7 2 4 7 6 5 10 9 11 4 9 12 6 5 4 14 7 12 12 19 17 18 15 15 14 11 10 8 9 9
11 11 12 13 14 14 14 15 15 15 16 15 16 16 18 19 19 18 14 14 8 7 6 5 5 7 4 5 7 11 13 12 11 9 8 12 12 12 10 9 5 7 5 5 4 4 5 8 3 6 7 8 6 5 7 8 4 6 4 6 3 5 6 8 4 11 12 9 5 10 9 5 5 4 12 11 16 19 19 17 16 13 11 11 10 10 9 9
11 11 11 12 13 14 14 15 15 15 15 16 14 14 16 19 19 13 9 8 6 6 7 8 6 7 12 12 10 13 9 8 9 9 9 7 11 12 11 8 6 8 8 8 8 8 6 5 5 6 4 9 8 9 10 11 6 4 4 5 5 4 6 10 7 9 11 13 7 10 12 10 7 3 14 10 20 20 18 17 16 15 13 11 10 9 10 10
12 11 11 11 12 13 14 15 15 14 14 15 16 18 21 20 11 4 7 5 3 2 1 6 8 6 5 8 23 13 5 9 8 11 12 10 9 9 10 10 10 8 10 10 7 11 6 5 4 6 13 13 13 10 9 3 6 9 6 7 5 5 6 10 8 11 15 11 11 9 12 13 5 5 5 7 14 19 16 15 14 14 13 12 11 10 10 10
11 12 11 11 12 12 13 13 14 14 14 10 8 8 6 2 2 3 6 7 10 10 7 3 13 7 16 16 4 8 13 8 9 13 11 11 9 12 12 9 11 10 10 11 8 13 4 10 12 16 11 10 10 11 7 8 11 9 8 8 11 11 11 12 8 15 15 10 13 10 9 6 4 6 8 5 11 18 17 14 13 12 12 12 11 10 10 10
13 11 11 11 12 13 13 13 13 14 14 8 9 8 4 5 5 2 5 10 16 17 18 18 11 15 16 13 15 12 10 7 12 10 16 11 12 12 12 11 11 10 11 10 7 7 10 10 15 11 8 10 11 8 6 8 13 14 9 8 10 13 11 14 7 18 15 9 10 9 9 8 8 5 7 5 14 18 18 15 15 14 12 12 15 12 11 11
14 12 11 12 12 14 14 14 13 13 14 7 8 8 8 14 10 9 9 9 11 18 19 20 15 15 16 22 20 12 12 13 11 15 11 16 14 14 11 13 13 11 8 9 10 8 14 17 12 7 8 9 7 10 10 11 12 13 9 5 4 10 12 14 8 21 15 11 9 12 9 8 7 5 8 5 9 13 16 17 15 15 14 14 12 12 13 12
14 12 12 12 12 12 13 14 13 13 7 7 9 12 13 15 11 9 7 10 13 14 17 18 18 16 19 18 15 8 15 14 12 12 13 16 14 16 12 14 12 10 11 13 13 11 11 14 9 11 10 11 8 10 13 13 12 9 7 7 9 5 9 8 5 22 14 11 9 12 10 4 6 5 7 7 17 10 13 13 12 15 18 15 13 12 13 13
10 13 12 12 12 12 13 12 12 10 8 12 13 16 14 9 9 10 9 6 10 14 15 16 16 15 18 17 5 12 13 11 10 14 15 16 14 14 10 16 13 11 12 17 17 12 11 3 9 10 7 11 11 10 14 11 11 10 11 8 7 12 11 10 8 17 14 9 7 9 4 3 6 7 8 12 18 16 14 17 16 13 12 14 13 11 11 13
12 12 12 11 11 11 10 13 7 7 7 9 14 18 17 16 14 11 8 6 5 13 12 16 10 11 19 13 12 10 9 11 15 12 11 17 14 14 12 9 8 12 13 16 16 13 11 8 12 11 11 11 12 11 14 12 11 10 11 12 13 14 14 7 10 18 8 8 4 13 3 1 0 7 9 10 15 15 13 17 13 12 11 13 14 12 11 11
10 13 11 10 10 8 9 6 7 5 8 10 11 15 12 15 10 6 1 2 9 8 7 9 11 14 9 13 9 12 13 13 11 12 11 16 11 12 7 8 8 13 17 15 14 8 7 10 13 15 14 15 15 13 11 13 11 9 10 13 16 16 17 12 10 11 9 8 7 10 10 2 1 5 5 10 17 16 12 15 12 11 9 10 9 9 11 10
11 12 11 9 7 4 3 5 4 10 9 6 8 7 2 2 5 1 1 3 7 5 9 6 12 1 8 12 12 9 9 9 8 8 6 15 14 12 12 8 10 6 9 5 5 10 10 15 15 16 16 16 15 15 13 15 11 11 12 9 12 15 16 16 11 10 7 4 5 7 8 8 4 4 6 11 18 16 15 12 11 10 10 10 9 8 9 10
11 11 10 8 7 4 3 5 9 8 9 12 14 13 2 3 4 3 2 3 3 6 7 5 6 6 9 11 13 13 6 7 9 10 9 6 10 13 11 13 11 14 12 11 13 8 12 11 16 17 16 14 15 15 11 13 12 9 9 11 12 13 16 13 5 7 9 7 0 8 8 8 6 5 8 14 16 16 16 13 13 12 11 11 11 10 11 10
11 11 10 8 8 9 6 5 7 10 9 11 13 14 5 3 6 2 2 3 5 3 3 8 4 8 5 13 14 10 12 5 7 5 9 5 14 4 13 12 9 13 13 14 9 6 10 13 13 15 14 13 10 11 14 14 14 10 10 11 12 10 9 5 5 9 10 9 6 9 12 5 2 4 6 8 13 15 15 13 14 14 13 11 10 11 11 10
11 11 10 7 4 5 6 7 10 14 12 12 14 13 3 3 1 0 2 6 1 1 3 3 8 9 8 13 10 12 13 9 7 7 9 8 13 13 6 7 7 10 13 13 13 7 9 12 10 11 14 12 9 10 16 13 10 5 13 12 11 12 4 1 2 2 6 7 8 13 14 10 5 8 9 10 9 17 14 10 9 12 12 11 10 11 10 9
10 11 11 6 3 4 6 8 9 7 8 10 12 11 1 3 2 2 7 4 4 1 2 4 7 11 11 15 10 12 13 12 11 7 11 10 14 16 6 10 10 5 7 9 12 13 11 14 13 9 13 10 10 11 13 15 9 8 8 9 8 8 2 1 1 5 4 4 6 12 12 15 6 7 10 6 16 22 19 18 16 14 13 11 9 9 10 9
10 10 12 6 6 5 6 8 5 10 10 11 12 3 5 2 1 6 4 1 6 6 4 1 8 8 11 13 9 13 12 13 11 9 9 8 10 13 11 7 9 7 9 10 10 12 14 14 13 11 13 15 14 10 11 14 10 11 8 6 8 2 3 4 3 4 5 10 6 8 10 6 4 2 3 15 21 16 18 18 18 18 15 14 11 9 7 7
9 10 12 7 8 5 10 11 10 9 9 12 7 1 3 4 7 6 7 5 2 5 4 10 6 9 10 13 11 14 13 11 11 10 11 10 8 13 12 11 7 7 5 10 7 11 9 9 17 12 10 14 11 12 8 13 10 14 13 7 7 5 5 5 3 3 2 1 5 9 6 2 2 2 10 9 9 13 16 16 15 16 16 14 11 9 8 7
10 9 5 6 7 8 8 7 7 8 9 7 4 3 0 6 5 5 9 7 6 2 6 6 14 11 11 8 11 11 11 12 10 7 12 9 11 10 12 16 12 12 7 6 7 10 8 11 15 16 8 15 14 13 10 10 9 12 10 8 5 2 3 4 2 6 6 3 4 6 4 1 5 2 1 10 13 15 16 16 15 16 14 13 11 10 9 9
8 6 5 6 7 8 8 9 7 8 6 4 1 4 7 8 2 3 4 2 2 5 7 10 10 9 7 10 10 14 9 7 14 9 12 10 9 7 14 13 18 10 9 5 7 3 13 6 7 18 4 18 14 12 8 9 6 10 6 4 5 7 3 4 4 5 6 5 4 3 3 3 5 3 8 12 13 14 16 17 16 15 13 12 11 10 8 8
6 4 6 7 8 7 8 8 7 6 5 4 4 7 11 6 3 5 2 4 1 6 8 7 4 4 7 7 11 13 15 4 12 9 9 14 9 9 12 10 12 15 6 6 4 5 8 7 8 17 12 18 20 11 10 9 8 7 6 8 8 4 2 2 2 1 6 8 2 1 6 5 5 6 8 12 14 15 15 15 15 15 13 12 11 10 9 7
6 5 7 9 11 7 8 9 7 6 4 5 4 8 8 8 12 12 1 3 5 3 5 3 2 4 5 3 2 12 13 11 6 7 4 13 10 13 15 14 12 12 15 6 4 5 4 3 9 13 21 10 14 11 13 9 5 4 8 6 2 4 3 4 4 1 3 5 1 0 6 8 8 2 5 9 14 12 12 13 14 13 12 12 10 9 8 8
5 5 9 11 10 8 9 9 8 4 4 3 7 8 5 10 9 12 7 7 3 5 2 2 3 4 4 3 4 8 13 11 5 8 4 13 3 10 10 12 15 14 13 16 3 7 4 2 5 12 12 9 9 9 9 6 8 7 10 6 6 5 8 2 3 3 5 4 1 2 7 7 7 8 12 12 13 12 13 14 14 13 12 12 11 10 9 9
5 5 5 10 10 9 10 10 6 6 2 5 6 8 8 12 12 13 12 10 2 4 1 3 0 3 3 2 2 7 10 10 5 8 5 8 6 12 13 8 11 18 16 13 10 3 7 2 3 10 10 9 5 6 7 9 8 5 4 7 7 2 4 4 4 3 8 3 4 4 9 2 3 3 10 15 16 17 16 14 13 14 12 11 10 9 8 8
4 2 6 3 3 11 11 8 7 5 5 8 6 8 5 8 11 16 16 13 2 2 2 4 7 3 6 5 5 2 7 5 9 4 8 7 9 13 15 13 8 15 19 16 10 3 1 3 1 6 10 11 8 6 11 9 8 6 4 5 7 4 4 4 2 5 4 4 7 7 5 3 2 9 13 12 13 16 15 13 11 11 11 11 11 9 7 8
3 2 2 5 8 7 10 6 6 8 8 5 9 9 10 8 8 10 12 11 3 3 6 8 2 1 1 5 3 6 2 2 6 4 6 8 11 5 12 13 12 13 15 16 13 3 2 3 5 3 8 7 4 11 13 10 7 3 5 5 7 9 4 9 3 1 2 4 4 7 4 1 1 3 7 13 12 13 13 15 13 12 11 11 10 9 10 8
2 4 2 7 3 9 12 7 4 5 5 9 8 8 8 10 13 14 11 5 7 6 9 9 10 3 1 3 3 5 1 6 5 6 5 4 9 6 7 15 15 10 10 7 11 3 5 2 4 3 6 7 5 10 11 7 5 6 7 5 6 5 5 4 3 4 2 1 9 5 8 1 3 4 10 13 13 13 13 15 14 12 12 10 10 10 9 8
3 5 2 3 2 11 10 6 5 6 8 8 9 13 15 14 12 9 8 5 7 9 8 8 4 4 3 0 4 3 5 3 6 5 6 8 5 13 5 15 15 13 9 2 6 3 9 0 5 8 5 2 7 4 12 9 9 8 7 4 5 5 6 6 3 5 5 3 7 3 5 0 5 6 12 13 13 13 11 13 15 12 10 11 12 11 9 8
3 4 3 2 2 4 5 5 7 8 8 9 11 12 11 13 13 10 7 10 7 3 6 5 3 4 2 4 3 3 1 1 4 4 5 8 7 8 8 15 17 8 8 4 6 3 3 3 6 5 4 1 4 3 3 12 10 6 4 6 4 5 6 3 2 2 5 2 11 9 6 2 6 9 10 13 15 14 14 12 13 13 11 11 11 9 8 8
4 3 2 1 1 3 6 4 4 5 8 9 7 11 10 9 10 13 8 11 11 10 9 4 4 2 2 2 3 5 8 4 3 4 7 8 5 7 10 12 17 8 10 10 8 4 4 3 5 7 9 9 9 11 12 11 15 5 3 12 6 5 6 5 5 2 4 1 10 7 4 6 9 12 14 14 15 14 12 12 11 11 11 10 9 8 9 8
2 5 1 1 3 2 6 8 7 5 4 4 5 9 10 9 8 8 10 9 12 4 2 4 2 2 4 1 3 4 4 4 4 3 7 5 4 5 10 11 16 14 13 21 16 6 2 1 3 3 7 7 3 2 2 1 2 3 3 2 11 5 4 4 6 5 5 3 6 7 17 15 14 15 15 13 14 15 14 13 12 11 10 9 8 8 8 8
2 3 2 2 3 3 5 4 7 5 4 4 3 4 5 8 8 7 4 2 4 4 1 3 2 0 1 1 4 6 3 3 5 8 7 8 5 6 10 12 10 16 18 17 18 7 1 2 4 4 5 3 3 3 3 4 3 1 1 4 3 8 7 3 5 6 10 11 6 4 22 20 15 15 15 15 14 14 13 12 12 11 10 9 8 9 10 8
2 1 1 3 2 3 4 6 8 9 12 11 8 9 11 10 7 4 0 4 1 3 1 1 5 7 4 6 2 3 1 2 4 4 2 7 6 6 8 10 8 10 17 5 13 4 3 3 4 4 3 4 5 7 5 4 3 1 3 4 5 6 7 6 4 4 7 9 10 13 16 20 14 14 14 13 14 14 14 13 12 11 11 10 10 10 9 9
2 3 4 3 3 2 4 5 7 10 12 12 7 9 8 8 10 7 2 1 3 1 4 2 3 6 10 6 7 3 2 1 2 2 2 3 2 4 5 3 5 13 11 8 8 2 3 0 3 4 2 2 1 2 8 4 3 3 3 4 4 7 6 5 3 4 7 8 21 20 11 13 12 14 14 12 12 15 13 12 11 12 11 11 9 9 9 9
3 3 2 2 4 7 7 5 5 7 7 11 9 8 7 7 11 7 5 2 0 3 5 4 5 7 6 8 11 5 5 4 4 3 0 1 7 0 5 2 3 9 7 5 5 2 5 2 4 4 1 2 4 9 10 6 9 2 9 12 15 10 11 11 12 15 21 16 18 22 21 15 5 11 13 13 12 12 14 13 13 12 11 11 10 9 11 11
3 3 4 5 5 3 5 4 3 4 4 5 8 7 7 10 6 4 3 2 4 3 3 3 4 6 7 8 7 13 10 5 5 5 1 5 3 3 4 5 1 6 9 5 3 1 6 1 2 2 4 1 6 9 9 15 16 12 12 13 10 5 8 2 10 10 16 15 17 19 16 10 8 13 13 13 14 15 15 15 13 11 10 10 11 11 10 9
4 4 5 4 3 3 4 5 6 2 3 2 6 6 3 5 6 6 4 4 6 8 6 5 5 5 6 5 2 0 0 1 4 6 5 1 5 9 9 12 8 1 6 3 4 3 4 4 2 3 5 3 5 7 7 4 8 9 6 8 6 7 13 13 15 9 20 26 17 14 12 14 18 17 18 14 14 13 13 13 13 12 11 11 12 11 10 9
Wind_Direction
338 338 334 332 333 330 331 332 330 330 331 331 331 327 325 323 320 318 317 319 322 320 319 322 326 324 325 323 323 325 326 317 310 297 276 246 231 227 249 264 227 194 176 206 259 262 237 206 219 241 245 230 238 244 254 262 242 197 216 206 252 239 257 243 246 269 255 30 343 2 188 160 133 163 207 84 85 92 77 72 71 79 84 105 114 122 124 121
335 334 333 331 329 329 325 326 326 328 329 330 330 330 326 325 322 318 320 318 317 319 320 320 321 326 328 329 326 324 330 306 290 281 252 245 248 258 241 227 176 177 159 202 224 222 223 200 217 210 224 239 220 239 203 239 235 201 202 187 234 224 251 281 266 294 314 348 295 311 6 9 229 169 167 128 110 100 83 83 92 89 93 102 110 118 122 125
332 332 331 329 328 323 324 324 323 326 325 325 327 327 325 322 324 320 321 318 316 317 321 322 320 321 326 325 324 331 323 307 288 260 258 234 227 242 225 184 171 164 167 191 213 231 224 203 199 202 215 239 222 232 201 228 219 220 190 217 237 241 267 275 295 299 44 26 12 16 322 316 177 166 168 178 139 112 117 117 104 111 114 113 119 121 127 130
328 327 327 327 324 323 323 322 324 323 323 324 323 325 323 323 321 323 321 320 316 316 320 321 321 321 322 323 326 328 312 286 271 240 244 226 199 217 207 187 175 171 184 220 238 241 263 280 226 198 211 216 239 229 219 209 220 174 217 226 238 235 246 258 265 260 127 62 23 351 320 338 184 320 160 179 127 129 142 142 134 136 133 129 130 132 131 135
323 324 324 324 323 321 321 322 320 322 320 321 322 322 319 320 321 321 321 318 315 315 319 321 321 321 324 323 324 326 305 355 278 51 302 261 214 193 189 189 177 173 181 210 235 260 268 270 282 231 215 213 233 232 236 219 213 219 206 228 251 266 264 281 319 305 70 65 44 318 14 312 315 349 359 16 99 278 146 132 127 133 135 134 136 135 138 138
320 319 320 320 320 319 320 319 320 320 321 319 319 318 318 317 321 320 319 314 315 316 317 320 322 325 324 327 311 296 302 159 354 37 322 66 100 180 182 182 177 169 170 216 225 257 257 264 241 250 205 235 217 223 226 234 182 241 257 236 236 246 266 284 276 302 75 135 177 58 349 311 352 326 58 83 85 94 113 124 125 125 128 126 125 131 134 137
316 318 316 317 317 317 317 317 319 321 319 316 316 314 315 315 315 320 317 316 313 316 317 317 321 321 328 326 295 257 248 284 322 203 263 110 124 120 118 102 110 203 209 209 229 232 235 245 254 232 219 215 245 250 250 225 197 195 242 239 248 238 250 266 276 357 54 50 325 29 356 348 316 344 84 95 107 101 105 111 114 116 116 122 127 133 137 139
313 314 316 314 314 315 314 315 317 318 316 314 312 314 312 313 314 317 319 316 316 316 315 316 318 322 330 332 333 223 209 251 240 239 179 90 128 135 137 142 157 162 198 222 214 220 238 248 240 233 244 202 196 238 257 265 213 201 217 253 272 266 242 241 268 116 74 3 329 317 337 297 278 252 96 104 108 110 108 111 114 116 118 121 128 134 125 102
312 313 314 313 313 313 312 311 314 315 315 313 311 310 313 314 314 314 315 313 314 313 316 316 319 323 326 300 287 307 240 231 251 321 153 164 129 133 143 151 172 175 203 223 226 233 217 246 251 230 222 226 230 241 245 250 259 212 220 221 250 269 276 270 258 194 138 125 261 293 284 292 277 337 118 122 122 117 118 111 111 111 114 121 122 109 107 107
313 314 313 313 312 309 308 309 311 313 312 310 310 310 309 309 310 311 312 311 308 311 310 314 311 324 316 291 285 257 253 239 274 259 201 186 169 157 196 166 164 185 196 222 224 228 229 236 244 231 257 272 247 239 255 241 242 188 213 216 235 247 264 259 242 206 161 156 174 230 198 264 282 231 113 141 130 121 115 112 114 115 118 117 103 102 101 105
312 312 313 312 311 308 307 309 310 309 309 310 311 309 309 308 308 309 307 306 306 309 310 305 315 322 304 288 253 244 298 279 234 313 343 286 192 177 204 196 169 186 203 219 223 224 235 250 258 272 256 243 290 257 247 242 261 257 223 218 230 247 261 271 300 274 135 167 205 189 241 225 262 219 150 152 134 126 119 121 123 123 115 108 103 98 101 101
310 312 313 314 312 310 308 307 307 308 309 310 309 306 305 308 309 306 303 299 298 299 302 314 324 310 285 271 244 242 283 289 314 320 317 318 289 216 201 196 171 194 192 213 223 230 231 244 254 259 243 146 252 298 279 266 259 269 263 258 222 225 248 261 254 236 127 183 198 167 250 244 233 220 159 155 140 136 130 130 131 118 111 105 99 102 102 110
309 311 315 314 313 311 309 308 308 308 308 306 303 301 301 302 301 297 292 295 294 296 303 310 305 292 292 279 254 254 261 269 283 296 292 286 278 269 217 207 185 191 198 211 222 224 234 238 251 264 261 262 221 210 309 242 264 269 262 247 256 248 228 232 256 227 140 186 186 169 237 249 228 225 171 163 145 138 135 132 129 120 115 111 110 105 99 93
307 310 313 314 314 312 310 308 307 306 303 301 301 300 300 300 296 292 289 286 290 291 291 290 295 285 277 259 306 276 281 275 282 283 274 289 295 288 177 223 242 207 201 211 224 221 222 235 249 256 270 256 255 279 257 259 270 217 265 226 203 215 259 223 225 191 181 163 210 182 211 260 234 219 190 166 142 138 137 127 114 112 113 114 112 110 105 92
303 309 311 314 314 314 310 307 304 303 302 300 302 302 301 298 293 289 285 287 286 286 283 286 260 278 257 273 250 249 250 260 264 255 261 274 286 293 284 214 227 227 209 213 224 228 224 228 232 243 250 261 272 273 275 275 214 242 265 256 227 180 253 222 199 198 193 181 206 189 225 236 221 216 165 164 142 115 107 115 116 113 112 112 113 114 107 104
300 305 312 313 315 313 312 308 304 302 299 302 303 305 301 291 285 283 282 280 289 289 287 283 252 225 285 292 259 281 250 233 250 238 242 239 249 263 270 260 222 216 223 215 217 226 231 227 223 219 251 261 254 240 263 268 267 217 193 200 236 170 227 295 199 189 196 203 201 188 223 231 229 211 147 175 126 118 120 122 123 120 116 110 105 106 106 97
295 303 308 310 313 313 312 311 308 303 302 303 305 299 296 285 281 280 283 281 273 242 238 252 242 195 255 241 307 276 249 234 233 239 222 216 227 246 268 274 248 221 219 256 238 244 242 235 188 232 230 234 223 220 230 242 247 250 181 217 202 191 186 242 215 197 188 215 192 186 224 219 239 238 156 168 124 120 123 124 123 120 117 118 115 113 108 92
287 297 304 309 311 315 314 311 311 307 305 303 303 302 289 283 273 277 277 252 233 253 235 227 260 289 251 233 264 247 229 236 227 232 220 206 205 234 253 253 255 223 192 215 228 226 215 229 191 216 205 222 218 216 203 217 194 210 210 196 244 255 199 215 207 180 187 205 218 188 219 246 247 217 161 159 127 125 129 132 131 131 129 123 116 112 96 91
284 291 300 305 308 313 315 312 311 309 302 303 304 286 274 267 266 222 244 216 198 192 286 200 177 174 237 188 218 241 260 220 226 216 215 201 191 224 244 259 260 216 198 200 189 212 193 240 210 206 215 204 215 215 214 196 217 229 193 174 201 233 236 234 208 177 182 191 214 203 204 229 258 197 161 141 123 127 129 131 133 133 127 121 122 114 105 104
280 289 293 298 306 308 313 310 307 306 306 309 309 309 312 317 116 202 201 222 226 224 237 211 198 262 305 290 247 227 230 234 236 208 214 196 183 198 234 237 242 242 206 196 177 201 167 208 211 213 205 201 215 220 214 210 244 244 226 180 196 220 243 246 226 171 182 182 208 212 211 187 207 165 157 157 103 122 127 134 135 134 131 131 123 116 117 112
282 283 289 293 298 306 308 311 303 297 300 298 306 308 282 247 224 219 166 220 221 224 237 255 217 224 249 285 292 309 327 251 237 232 201 175 191 175 211 219 224 225 215 179 199 177 215 218 227 213 191 200 208 212 228 234 235 242 237 205 196 207 231 242 226 168 180 173 212 213 199 176 218 152 161 145 108 130 137 141 143 140 126 115 114 115 107 107
276 279 283 289 300 306 311 306 306 297 297 285 274 273 259 259 266 305 304 286 240 221 232 240 242 248 255 260 264 280 286 276 253 234 199 175 183 191 186 209 210 215 196 185 199 175 211 220 213 199 199 209 201 193 221 231 245 247 243 254 231 211 221 237 227 167 176 178 199 202 186 193 199 149 156 148 128 141 147 152 146 128 114 111 108 104 104 108
272 274 280 287 297 307 308 308 301 302 290 270 258 252 253 253 261 262 277 269 273 252 224 226 239 237 253 258 263 268 254 261 259 241 190 177 177 202 171 200 206 205 195 200 199 190 207 228 198 201 196 197 205 194 209 232 246 243 247 236 243 246 211 235 188 172 174 182 183 194 193 207 176 148 146 98 82 85 70 80 108 118 121 112 110 112 110 107
282 279 278 287 297 304 309 306 304 293 250 240 249 243 249 270 279 281 277 280 303 282 248 235 220 221 235 240 243 213 241 251 242 256 168 178 192 181 201 193 200 205 203 202 211 207 212 119 189 205 199 189 208 204 201 214 235 242 236 232 237 249 238 213 156 177 172 203 156 151 85 117 144 109 105 89 94 87 83 84 79 70 81 98 101 95 102 111
274 279 277 282 296 303 309 315 282 238 252 240 243 246 247 256 262 275 286 287 250 259 231 238 232 215 229 234 238 261 221 240 251 258 171 180 177 167 214 178 203 209 210 199 214 226 213 188 174 203 203 204 212 217 209 197 229 245 239 227 235 246 263 235 167 155 170 206 215 144 70 160 31 127 122 115 96 95 104 95 89 94 88 92 95 101 99 96
257 260 269 278 293 306 320 301 255 263 284 259 243 248 242 233 247 247 143 307 282 260 148 215 141 231 204 225 194 225 258 259 241 236 183 180 180 182 176 208 196 199 210 196 206 224 209 180 185 195 198 205 212 223 212 198 215 227 236 219 232 244 254 272 172 149 171 178 214 159 137 224 321 135 120 109 102 104 94 94 99 92 82 84 90 98 105 100
258 256 258 274 286 303 293 247 322 340 303 283 330 312 357 26 215 91 151 225 271 214 200 124 145 209 178 203 190 177 214 234 242 257 230 167 195 166 195 205 176 227 196 199 186 212 209 190 191 193 199 203 206 217 213 203 203 228 233 221 226 233 246 249 223 182 170 195 134 140 139 145 168 249 149 120 110 101 91 91 92 92 94 100 99 89 88 92
248 253 253 266 268 224 233 291 312 296 269 287 308 322 295 64 350 52 67 296 259 157 155 161 221 153 189 159 188 196 256 117 192 227 236 155 203 162 213 199 193 197 188 199 211 184 196 201 193 191 199 204 210 207 208 208 211 221 237 229 235 228 237 246 262 182 177 150 106 127 112 120 183 208 157 132 120 110 113 111 108 103 100 95 92 88 88 87
253 246 251 256 264 261 252 253 273 270 275 289 297 298 332 343 50 84 229 243 278 4 74 127 129 133 195 152 185 204 225 222 231 154 211 231 207 189 202 211 205 191 218 209 217 176 194 221 198 197 191 211 209 195 214 210 215 219 240 243 244 240 238 232 244 174 164 153 176 153 151 124 205 223 161 149 136 131 129 127 119 117 114 112 107 101 97 95
244 248 253 254 279 263 245 234 241 251 271 278 280 291 309 26 92 237 166 258 339 337 207 96 182 183 182 161 180 196 219 233 250 166 193 206 195 214 207 221 231 198 212 215 226 207 189 215 227 204 197 203 202 204 211 220 222 183 230 249 258 247 229 215 129 267 108 169 200 166 162 128 168 211 177 172 167 132 129 119 116 116 113 110 107 105 105 102
232 235 242 239 223 262 288 266 251 254 294 304 297 278 21 45 198 173 224 260 343 337 109 144 180 157 169 168 173 190 219 232 234 209 176 195 195 204 179 197 236 255 215 219 210 221 210 189 221 205 196 189 200 206 205 222 216 207 216 223 260 277 255 356 331 179 148 242 218 176 179 145 155 217 193 164 129 140 137 135 133 127 122 116 103 103 104 100
230 230 239 231 243 271 258 257 315 333 311 311 317 274 91 188 135 212 226 134 249 330 309 236 226 167 173 168 186 175 203 222 244 217 184 191 177 193 197 200 185 189 215 199 201 213 222 200 204 214 186 189 192 213 197 214 209 212 214 206 196 259 129 230 111 217 179 193 209 173 158 165 151 262 239 140 142 142 137 136 135 130 125 118 111 106 97 93
228 235 239 233 244 249 247 267 291 289 303 297 313 253 133 226 213 222 276 295 300 345 332 323 284 210 183 172 186 177 200 221 224 245 183 177 190 195 213 223 189 191 186 198 189 196 235 223 192 212 176 195 189 200 173 208 197 200 211 184 179 194 183 187 204 155 260 236 157 180 156 172 116 21 1 101 105 116 115 112 118 120 124 119 114 111 107 97
229 233 230 231 238 241 255 267 275 295 310 325 278 137 303 228 233 167 238 260 278 231 299 322 327 310 210 193 177 175 188 223 223 226 200 178 194 180 209 223 225 193 241 169 213 189 190 217 197 190 208 174 203 201 187 199 178 207 212 183 155 151 164 181 144 175 196 216 164 157 142 281 119 219 328 91 103 105 105 110 111 112 110 109 108 109 108 107
233 237 243 256 255 248 246 249 257 276 292 308 333 199 198 229 298 272 226 318 321 307 314 357 320 327 268 216 184 175 192 194 229 218 200 197 195 183 192 211 218 222 207 159 212 204 209 246 183 193 194 172 206 197 191 182 183 218 194 154 201 226 146 141 189 144 156 128 148 62 72 26 81 73 71 89 92 97 106 110 114 112 116 118 118 117 115 112
275 238 227 241 239 231 231 233 236 240 238 229 199 203 216 198 200 223 302 279 269 330 341 329 349 298 285 262 194 183 183 219 206 230 198 207 193 200 187 212 217 219 202 199 175 201 187 218 185 182 221 178 190 186 210 174 199 207 171 201 210 181 137 125 56 127 99 108 29 148 117 83 105 47 79 101 102 111 115 118 118 122 126 123 117 118 121 120
248 254 245 238 239 223 212 217 208 209 227 227 215 224 224 247 257 291 249 299 276 1 357 13 293 263 217 244 257 195 165 214 216 203 208 195 209 198 182 212 217 223 234 207 178 228 132 232 186 178 202 213 196 178 207 189 193 134 204 223 203 225 199 124 174 292 93 137 213 344 141 154 149 182 144 119 116 119 121 120 120 120 120 115 116 121 126 120
282 266 267 258 239 206 208 203 190 206 211 226 224 241 235 248 241 254 254 257 251 15 318 251 250 270 264 240 270 220 159 195 182 194 244 181 270 181 191 199 206 228 224 230 202 203 201 198 217 196 200 197 176 165 226 252 236 164 198 153 169 176 241 234 121 185 137 135 165 115 165 178 195 160 156 155 135 138 133 130 125 126 123 120 123 120 119 114
266 275 284 249 212 211 190 180 195 170 174 204 228 237 247 262 280 286 289 290 215 151 246 221 239 274 285 281 291 247 182 195 189 204 215 175 227 179 212 191 202 219 234 230 225 213 193 142 217 193 189 165 165 164 215 227 260 228 145 173 188 134 191 146 198 160 114 139 98 139 175 248 227 168 171 156 150 148 141 138 137 132 128 122 117 119 112 109
258 235 247 337 202 180 172 171 164 178 187 215 207 231 276 272 244 243 248 250 302 75 277 312 217 222 271 276 315 326 327 294 198 242 216 157 218 170 204 189 212 207 227 234 233 175 287 115 316 191 172 139 191 188 209 203 194 225 173 185 187 213 186 139 241 179 149 146 150 131 184 232 305 169 173 162 148 146 144 137 131 126 122 119 120 119 114 104
229 264 298 9 333 140 85 128 166 190 200 235 243 246 239 243 265 255 232 224 246 161 197 239 263 186 264 351 330 8 280 294 301 254 224 170 186 161 209 190 208 208 213 224 230 172 71 118 180 233 182 177 201 186 216 200 195 205 180 198 183 185 161 183 277 219 125 123 153 133 179 125 323 347 144 140 139 139 140 128 125 124 122 122 118 111 109 109
265 244 178 10 87 126 134 162 207 186 219 221 219 218 244 243 255 265 279 248 212 228 211 246 238 236 204 228 283 302 252 315 285 311 250 196 192 220 195 203 200 217 210 189 201 148 138 181 114 211 211 208 204 187 214 219 223 236 186 218 172 165 121 114 123 238 166 181 116 132 122 239 355 304 136 134 137 134 130 128 126 124 125 121 113 111 109 112
231 258 1 75 4 156 162 181 181 196 221 240 249 251 251 262 267 270 269 259 284 253 232 218 221 234 212 179 272 271 321 276 276 260 289 252 204 210 178 208 204 220 193 150 155 248 79 349 122 175 221 262 234 199 187 220 233 253 241 197 170 197 166 155 158 188 163 186 93 30 61 22 33 56 112 123 121 119 122 125 124 125 124 115 112 111 112 109
289 291 309 23 358 70 191 183 181 210 228 239 243 259 256 259 258 250 235 260 246 241 245 246 158 241 225 230 273 275 67 20 290 312 299 245 228 242 225 204 209 208 185 148 187 173 127 220 121 134 158 129 249 314 205 204 218 233 219 214 179 169 160 147 109 76 165 235 143 129 140 175 142 126 114 121 123 124 125 124 123 120 117 116 118 123 122 112
283 239 215 338 316 152 218 226 206 201 226 246 249 249 250 254 247 256 249 237 238 219 231 205 193 162 35 359 303 310 295 240 297 275 277 241 226 224 253 223 206 216 191 159 164 169 180 193 112 156 171 176 188 196 202 191 205 194 240 194 203 167 163 140 190 141 187 50 102 103 95 96 111 113 114 121 122 118 120 117 112 113 116 121 125 122 112 106
336 321 47 127 163 197 272 281 299 295 299 298 306 282 278 275 263 253 253 279 263 224 77 14 99 82 187 141 320 279 264 240 239 288 352 317 244 245 250 238 203 208 189 153 151 170 209 203 119 144 170 192 226 291 330 328 80 203 303 214 199 211 185 152 129 130 161 140 79 140 131 134 131 130 131 139 132 130 127 125 120 117 116 115 116 110 106 102
307 266 331 80 97 250 259 252 272 264 252 252 265 273 264 270 269 258 156 263 36 37 9 135 275 286 91 252 253 268 277 333 302 285 280 275 286 282 261 235 213 208 152 146 146 159 185 152 183 151 180 192 241 283 268 204 172 150 199 288 255 209 218 156 140 211 152 96 67 151 138 135 151 146 144 141 136 128 126 123 120 118 120 120 117 111 108 109
259 113 173 297 293 186 210 265 246 259 259 255 255 275 287 290 291 282 87 265 233 137 91 278 198 226 221 208 270 278 338 272 279 272 295 272 260 299 287 237 230 157 139 142 146 136 139 157 218 142 187 206 205 232 252 209 235 153 195 255 262 237 219 201 206 180 158 145 153 165 151 136 149 147 143 141 135 130 128 123 120 122 117 118 120 121 122 116
271 310 283 278 256 277 226 280 270 246 249 242 253 244 261 272 281 285 306 7 1 275 163 237 242 225 216 174 225 254 265 0 326 255 222 317 302 343 311 230 207 145 142 147 152 141 88 195 183 160 86 344 322 42 21 355 255 260 266 268 268 237 228 130 73 119 130 132 138 145 132 122 135 138 135 129 122 120 117 115 116 118 124 126 131 125 117 107
312 340 310 317 270 279 275 237 242 263 259 249 245 227 248 261 267 282 234 302 314 261 256 233 245 254 263 189 205 224 230 210 226 272 233 136 336 65 262 236 169 158 131 142 140 160 100 296 19 144 101 287 18 43 22 32 24 357 32 40 53 53 80 100 100 85 84 87 116 123 115 100 60 109 113 116 117 114 117 122 125 129 136 139 132 115 101 100
275 251 263 290 299 257 263 306 307 277 288 280 256 245 241 252 266 22 308 232 246 268 272 269 280 286 260 259 223 221 225 223 223 241 159 136 207 302 353 307 160 135 145 147 98 21 86 247 5 79 108 332 14 49 57 84 80 61 29 19 359 49 75 44 111 140 113 131 125 116 107 113 128 116 109 114 121 125 129 133 137 141 140 132 117 111 108 106
270 254 247 234 256 294 321 301 278 232 234 332 331 304 328 4 15 29 353 288 261 250 264 281 288 291 295 293 304 256 83 187 256 295 50 10 308 307 277 282 288 160 153 125 107 92 106 113 71 77 93 24 329 52 37 13 53 33 339 326 327 83 92 69 48 31 132 139 136 149 162 143 141 133 126 131 130 132 138 145 138 134 129 121 117 114 112 109